Regional Weather Roundup
Issued by NWS Wilmington, NC

Home | Current Version | Previous Version | Text Only | Print | Product List | Glossary On
Versions: 1 2 3 4 5 6 7 8 9 10 11 12 13 14 15 16 17 18 19 20 21 22 23 24 25 26 27
000
ASUS42 KILM 260813
RWRILM
RWRILM
REGIONAL HOURLY WEATHER ROUNDUP
NATIONAL WEATHER SERVICE WILMINGTON NC
400 AM EDT FRI MAY 26 2017

NOTE: "FAIR" INDICATES FEW OR NO CLOUDS BELOW 12,000 FEET WITH NO
SIGNIFICANT WEATHER AND/OR OBSTRUCTIONS TO VISIBILITY.

...............WFO WILMINGTON COUNTY WARNING AREA...............

......COASTAL NC AND SC COUNTIES......

CITY           SKY/WX    TMP DP  RH WIND       PRES   REMARKS
WILMINGTON     CLEAR     65  54  67 W12       29.86R
N MYRTLE BEACH CLEAR     66  54  65 W10       29.88R
MYRTLE BEACH   CLEAR     65  54  67 W13       29.90R

......INLAND NC AND SC COUNTIES.......

CITY           SKY/WX    TMP DP  RH WIND       PRES   REMARKS
LUMBERTON      CLEAR     62  54  74 W9        29.86R
ELIZABETHTOWN  CLEAR     64  53  67 SW8       29.86R
WHITEVILLE     CLEAR     64  53  68 SW6       29.87R
FLORENCE       CLEAR     61  54  77 SW8       29.89R
DARLINGTON     CLEAR     62  54  74 SW9       29.88R
KINGSTREE      FAIR      59  52  77 CALM      29.90S
HARTSVILLE     FAIR      57  52  82 CALM      29.89R
BENNETTSVILLE  FAIR      63  55  77 SW6       29.87R
CONWAY         FAIR      59  54  82 SW5       29.90R
GEORGETOWN     FAIR      59  54  82 SW6       29.92R
MARION         NOT AVBL

....................REST OF NORTH CAROLINA......................

.........EASTERN NC.........

CITY           SKY/WX    TMP DP  RH WIND       PRES   REMARKS
CAPE HATTERAS  CLEAR     71  56  58 W15G28    29.78R
JACKSONVILLE   CLEAR     61  55  81 SW8       29.84R
MOREHEAD CITY  CLEAR     69  57  65 W15       29.82R
KENANSVILLE    CLEAR     63  54  72 SW10G16   29.84R
NEW BERN       CLEAR     65  54  67 SW10      29.82R
ELIZABETH CITY CLEAR     64  56  75 SW14      29.72R

.........CENTRAL NC.........

CITY           SKY/WX    TMP DP  RH WIND       PRES   REMARKS
RALEIGH DURHAM PTCLDY    60  54  80 SW8       29.81R
ROCKY MOUNT    CLEAR     61  55  81 SW8       29.79R
ROANOKE RAPIDS NOT AVBL
FAYETTEVILLE   CLEAR     64  54  69 SW10      29.84R
HOFFMAN        CLEAR     61  53  74 W7        29.85R

.........WESTERN NC.........

CITY           SKY/WX    TMP DP  RH WIND       PRES   REMARKS
CHARLOTTE      CLEAR     60  51  72 W8        29.88R
GREENSBORO     PTCLDY    57  53  86 SW10      29.81R
HICKORY        NOT AVBL
BOONE          NOT AVBL
ASHEVILLE      NOT AVBL

.....................REST OF SOUTH CAROLINA.....................

.........EASTERN SC.........

CITY           SKY/WX    TMP DP  RH WIND       PRES   REMARKS
CHARLESTON     CLEAR     63  53  70 W9        29.92R
BEAUFORT MCAS  CLEAR     64  55  72 W8        29.93S
HILTON HEAD    NOT AVBL

.........CENTRAL SC.........

CITY           SKY/WX    TMP DP  RH WIND       PRES   REMARKS
COLUMBIA       CLEAR     58  52  80 W5        29.90R
ORANGEBURG     CLEAR     57  53  86 S3        29.92R
SUMTER SHAW    CLEAR     61  52  72 W8        29.88R

.........WESTERN SC.........

CITY           SKY/WX    TMP DP  RH WIND       PRES   REMARKS
GREENVILLE     NOT AVBL
ROCK HILL      CLEAR     59  51  75 W8        29.89R
ANDERSON       CLEAR     59  52  77 W8        29.93R
CLEMSON        NOT AVBL
GREENWOOD      CLEAR     56  50  80 SW6       29.94R


...................COASTAL AND OFFSHORE REPORTS..................

................LOCAL PIERS AND NC RESERVE................


STATION/POSITION TIME  SKY/WX   TEMP    WIND        PRES    VSBY
                                AIR SEA DIR/SP/G
                 (UTC)          (F)     (DEG/KT/KT) (MB)    (MI)
JOHNY MRCER PIER 0748            68 74  260/ 12/ 15 1009.9R
NC RESRV MASNBRO 0645            67     270/  4     1011.0
OCEAN CREST PIER NOT AVBL
SPRINGMAID  PIER 0748                               1011.4R


................COASTAL AND OFFSHORE BUOYS................


STATION/POSITION TIME  SKY/WX   TEMP    WIND        PRES    VSBY
                                AIR SEA DIR/SP/G
                 (UTC)          (F)     (DEG/KT/KT) (MB)    (MI)
DIMNDSHOAL 41025 0750            73 78  270/ 29/ 33 1007.8R
WVE H/P(F/S)=  9/ 8 SWL H/P/D(F/S/D)=  3/220/13

CAPE LOOKOUT     0800            71     260/ 21/ 27 1009.5R
ONSLOW BAY 41036 NOT AVBL
ONSLOW BAY 41064 0708            73 75  270/ 25/ 31 1009.8R
ONSLOW BAY 41159 0743               75                N/A
WVE H/P(F/S)=  9/ 7 SWL H/P/D(F/S/D)=  2/170/11

MASNBO INL 41110 0759               73                N/A
WVE H/P(F/S)=  4/ 8

WILM HARBR 41108 0747               75                N/A
WVE H/P(F/S)=  6/ 5

27SE WRITB 41037 0708            73 75  250/ 21/ 29 1009.7R
FRYING PAN 41013 0800            74 75  260/ 23/ 29 1011.8
SUNST NRSH 41024 0708            71 74  270/ 16/ 21 1011.1R
CAPRS NRSH 41029 0708            77 76  270/ 17/ 21 1012.5R
EDISTO     41004 0750            74 74  260/ 19/ 23 1012.8R
WVE H/P(F/S)=  5/ 6 SWL H/P/D(F/S/D)=  2/150/ 8



..........OFFSHORE BUOYS BEYOND 100 NM OFFSHORE...........
.....IN A TRIANGLE---HAT TO BERMUDA TO BAHAMAS TO HAT.....


STATION/POSITION TIME  SKY/WX   TEMP    WIND        PRES    VSBY
                                AIR SEA DIR/SP/G
                 (UTC)          (F)     (DEG/KT/KT) (MB)    (MI)
150E HAT   41001 0750            73 76  260/ 21/ 27 1009.6F
WVE H/P(F/S)= 15/10

W BERMUDA  41048 0800            75 75  230/ 19/ 23 1014.6
ATLANTIC S 41049 0750            75 77  120/  8/ 10 1022.7F
WVE H/P(F/S)=  3/ 9 SWL H/P/D(F/S/D)=  3/110/ 9

E BAHAMAS  41046 0800            79 80  110/ 14/ 16 1019.3
NE BAHAMAS 41047 0800            78 78  220/ 10/ 12 1018.0
120E CANVRL41010 0800            80 78  260/ 12/ 14 1013.8

END




USA.gov is the U.S. government's official web portal to all federal, state and local government web resources and services.